Regional Weather Roundup
Issued by NWS Wilmington, NC

Home | Current Version | Previous Version | Text Only | Print | Product List | Glossary On
Versions: 1 2 3 4 5 6 7 8 9 10 11 12 13 14 15 16 17 18 19 20 21 22 23 24 25 26 27 28 29 30 31 32 33 34 35 36 37 38 39 40 41 42 43 44 45 46 47 48
000
ASUS42 KILM 031510
RWRILM
RWRILM
REGIONAL HOURLY WEATHER ROUNDUP
NATIONAL WEATHER SERVICE WILMINGTON NC
1000 AM EST TUE MAR 03 2015

NOTE: "FAIR" INDICATES FEW OR NO CLOUDS BELOW 12,000 FEET WITH NO
SIGNIFICANT WEATHER AND/OR OBSTRUCTIONS TO VISIBILITY.

...............WFO WILMINGTON COUNTY WARNING AREA...............

......COASTAL NC AND SC COUNTIES......

CITY           SKY/WX    TMP DP  RH WIND       PRES   REMARKS
WILMINGTON     LGT RAIN  42  31  64 NE8       30.36R
SOUTHPORT      CLOUDY    44  37  74 NE10G16   30.34S
N MYRTLE BEACH CLOUDY    47  34  60 NE8       30.32S
MYRTLE BEACH   CLOUDY    48  34  57 NE10      30.35R

......INLAND NC AND SC COUNTIES.......

CITY           SKY/WX    TMP DP  RH WIND       PRES   REMARKS
LUMBERTON      LGT RAIN  41  27  57 E9        30.34F
ELIZABETHTOWN  RAIN      39  31  73 CALM      30.36F
WHITEVILLE     CLOUDY    42  27  55 NE5       30.35S
FLORENCE       CLOUDY    43  30  60 NE8       30.34F
DARLINGTON     CLOUDY    41  30  65 E10       30.36F

....................REST OF NORTH CAROLINA......................

.........EASTERN NC.........

CITY           SKY/WX    TMP DP  RH WIND       PRES   REMARKS
CAPE HATTERAS  CLOUDY    44  36  73 VRB6G17   30.38F
JACKSONVILLE   CLOUDY    39  27  60 NE12      30.39F WCI  32
MOREHEAD CITY  CLOUDY    42  33  70 N13       30.39S
KENANSVILLE    CLOUDY    38  28  65 NE5       30.38F WCI  35
NEW BERN       CLOUDY    41  28  60 NE7       30.41R
ELIZABETH CITY CLOUDY    40  28  62 NE12      30.43F WCI  33

.........CENTRAL NC.........

CITY           SKY/WX    TMP DP  RH WIND       PRES   REMARKS
RALEIGH DURHAM CLOUDY    37  17  44 E12       30.39F WCI  29
ROCKY MOUNT    CLOUDY    37  21  52 NE8       30.42F WCI  31
ROANOKE RAPIDS NOT AVBL
FAYETTEVILLE   CLOUDY    41  23  48 E8        30.36F
HOFFMAN        CLOUDY    41  25  54 E6        30.39F

.........WESTERN NC.........

CITY           SKY/WX    TMP DP  RH WIND       PRES   REMARKS
CHARLOTTE      LGT RAIN  39  36  87 E7        30.34S FOG     WCI  34
GREENSBORO     CLOUDY    40  28  62 CALM      30.35S
HICKORY        NOT AVBL
BOONE          NOT AVBL
ASHEVILLE      NOT AVBL

.....................REST OF SOUTH CAROLINA.....................

.........EASTERN SC.........

CITY           SKY/WX    TMP DP  RH WIND       PRES   REMARKS
CHARLESTON     CLOUDY    55  47  74 E7        30.30S
BEAUFORT MCAS  LGT RAIN  56  54  93 E3        30.29R
HILTON HEAD    CLOUDY    55  52  88 NE7       30.30R FOG

.........CENTRAL SC.........

CITY           SKY/WX    TMP DP  RH WIND       PRES   REMARKS
COLUMBIA       DRIZZLE   50  47  89 E10       30.30S FOG
ORANGEBURG     CLOUDY    50  47  89 E5        30.30R
SUMTER SHAW    CLOUDY    44  41  89 NE9       30.31S FOG

.........WESTERN SC.........

CITY           SKY/WX    TMP DP  RH WIND       PRES   REMARKS
GREENVILLE     NOT AVBL
ROCK HILL      LGT RAIN  40  39  97 E5        30.34R FOG
ANDERSON       LGT RAIN  43  39  86 NE12      30.30F
CLEMSON        NOT AVBL
GREENWOOD      CLOUDY    46  41  82 VRB7      30.31R


...................COASTAL AND OFFSHORE REPORTS..................

................LOCAL PIERS AND NC RESERVE................


STATION/POSITION TIME  SKY/WX   TEMP    WIND        PRES    VSBY
                                AIR SEA DIR/SP/G
                 (UTC)          (F)     (DEG/KT/KT) (MB)    (MI)
JOHNY MRCER PIER 1500                    50/ 17/ 18   N/A
NC RESRV MASNBRO 1400            42      40/ 12     1027.0S
OCEAN CREST PIER 1500            45 46   20/ 12/ 16 1026.3R
SPRINGMAID  PIER 1500                    20/ 12/ 14   N/A


................COASTAL AND OFFSHORE BUOYS................


STATION/POSITION TIME  SKY/WX   TEMP    WIND        PRES    VSBY
                                AIR SEA DIR/SP/G
                 (UTC)          (F)     (DEG/KT/KT) (MB)    (MI)
DIMNDSHOAL 41025 NOT AVBL
CAPE LOOKOUT     1400            42      20/ 10/ 13 1028.7R
ONSLOW BAY 41036 NOT AVBL
5 WRITEBCH 41038 NOT AVBL
MASONBORO  41110 1500               46                N/A
WVE H/P(F/S)=  5/ 6 WND WVE H/P(F/S)=  5/ 6

WILM HARBR 41108 1500               47                N/A
WVE H/P(F/S)=  4/ 7 WND WVE H/P(F/S)=  3/ 7

27WRITEBCH 41037 NOT AVBL
FRYING PAN 41013 1500            62 61  110/ 16/ 17 1026.8R
WVE H/P(F/S)=  6/ 6 WND WVE H/P(F/S)=  5/ 6 SWL H/P/D(F/S/D)=  3/160/ 9

SUNST NRSH 41024 1400            45      60/ 14/ 16   N/A
CAPRS NRSH 41029 NOT AVBL
EDISTO     41004 1500            68 69   90/ 14/ 16 1024.3R
WVE H/P(F/S)=  5/ 8 WND WVE H/P(F/S)=  3/ 6 SWL H/P/D(F/S/D)=  3/ 8



..........OFFSHORE BUOYS BEYOND 100 NM OFFSHORE...........
.....IN A TRIANGLE---HAT TO BERMUDA TO BAHAMAS TO HAT.....


STATION/POSITION TIME  SKY/WX   TEMP    WIND        PRES    VSBY
                                AIR SEA DIR/SP/G
                 (UTC)          (F)     (DEG/KT/KT) (MB)    (MI)
150E HAT   41001 NOT AVBL
W BERMUDA  41048 1401            62 68   30/ 16/ 19 1026.2R
WVE H/P(F/S)=  9/ 8 WND WVE H/P(F/S)=  7/ 5 SWL H/P/D(F/S/D)=  7/320/ 8

ATLANTIC S 41049 1423            72 74  310/  2/  4 1022.4R
WVE H/P(F/S)=  6/11 WND WVE H/P(F/S)=  2/ 4 SWL H/P/D(F/S/D)=  5/ 90/11

E BAHAMAS  41046 1356            76 78   70/ 12/ 14 1022.5
WVE H/P(F/S)=  7/ 9 WND WVE H/P(F/S)=  2/ 5 SWL H/P/D(F/S/D)=  7/ 70/ 9

NE BAHAMAS 41047 1434            72 74  360/  2/  4 1024.6R
WVE H/P(F/S)=  6/ 9 SWL H/P/D(F/S/D)=  5/110/ 9

120E CANVRL41010 1500            73 75   80/ 10/ 12 1024.8F
WVE H/P(F/S)=  4/ 9 SWL H/P/D(F/S/D)=  3/100/ 9


END



USA.gov is the U.S. government's official web portal to all federal, state and local government web resources and services.